OMA1379 OEGS-OOMS

Flight info

Callsign OMA1379
Flight time 1h 56m
Altitude 37000
Route KUSRO G662 KSA M440 SITER DCT KATIT DCT MIDGU M717 PUTSO N685 LAKLU
Aircraft A321/M-SDE3FGHIRWY/LB1

Departure

Time 2026-04-21 20:51
Airport Prince Naif bin Abdulaziz International Airport (OEGS)

Arrival

Time 2026-04-21 22:47
Airport Muscat International Airport (OOMS)
Time Latitude Longitude Altitude Speed Heading
2026-04-21 20:29 26.30624 43.76876 2141 ft 0 kts 246°
2026-04-21 20:44 26.30636 43.76905 2141 ft 7 kts 246°
2026-04-21 20:44 26.30635 43.76953 2141 ft 7 kts 310°
2026-04-21 20:44 26.30614 43.76969 2141 ft 0 kts 332°
2026-04-21 20:47 26.30615 43.76968 2141 ft 1 kts 332°
2026-04-21 20:47 26.30649 43.76949 2141 ft 11 kts 333°
2026-04-21 20:47 26.30749 43.76892 2141 ft 22 kts 333°
2026-04-21 20:48 26.30898 43.76807 2141 ft 25 kts 333°
2026-04-21 20:48 26.31057 43.76715 2141 ft 26 kts 333°
2026-04-21 20:48 26.31210 43.76626 2141 ft 20 kts 333°
2026-04-21 20:48 26.31319 43.76606 2141 ft 16 kts 12°
2026-04-21 20:49 26.31413 43.76638 2141 ft 11 kts 31°
2026-04-21 20:49 26.31448 43.76687 2141 ft 7 kts 59°
2026-04-21 20:49 26.31463 43.76724 2141 ft 4 kts 85°
2026-04-21 20:49 26.31449 43.76747 2141 ft 4 kts 153°
2026-04-21 20:50 26.31389 43.76781 2141 ft 31 kts 152°
2026-04-21 20:50 26.31006 43.77001 2141 ft 91 kts 153°
2026-04-21 20:50 26.30281 43.77416 2141 ft 142 kts 152°
2026-04-21 20:50 26.29281 43.77985 2198 ft 172 kts 152°
2026-04-21 20:51 26.28203 43.78577 2747 ft 174 kts 151°
2026-04-21 20:51 26.27154 43.79214 3514 ft 169 kts 151°
2026-04-21 20:51 26.26192 43.80004 4072 ft 183 kts 135°
2026-04-21 20:51 26.25445 43.81319 4211 ft 220 kts 120°
2026-04-21 20:52 26.24688 43.83004 4300 ft 263 kts 118°
2026-04-21 20:52 26.23878 43.84868 5157 ft 266 kts 118°
2026-04-21 20:52 26.23080 43.86724 6003 ft 274 kts 118°
2026-04-21 20:52 26.22250 43.88659 6847 ft 280 kts 120°
2026-04-21 20:53 26.21402 43.90637 7637 ft 287 kts 120°
2026-04-21 20:53 26.20530 43.92669 8418 ft 294 kts 120°
2026-04-21 20:53 26.19637 43.94750 9157 ft 302 kts 121°
2026-04-21 20:53 26.18719 43.96887 9876 ft 309 kts 121°
2026-04-21 20:54 26.17774 43.99085 10360 ft 326 kts 121°
2026-04-21 20:54 26.16748 44.01465 10570 ft 350 kts 120°
2026-04-21 20:54 26.15704 44.03910 11462 ft 350 kts 120°
2026-04-21 20:54 26.14651 44.06370 12176 ft 355 kts 120°
2026-04-21 20:55 26.13582 44.08867 12941 ft 359 kts 121°
2026-04-21 20:55 26.12499 44.11391 13655 ft 363 kts 121°
2026-04-21 20:55 26.11402 44.13947 14364 ft 367 kts 121°
2026-04-21 20:55 26.10667 44.15658 14827 ft 370 kts 121°
2026-04-21 20:56 26.09553 44.18252 15506 ft 374 kts 121°
2026-04-21 20:56 26.08424 44.20877 16172 ft 378 kts 121°
2026-04-21 20:56 26.07288 44.23519 16891 ft 379 kts 122°
2026-04-21 20:56 26.05770 44.27046 17735 ft 384 kts 122°
2026-04-21 20:57 26.04988 44.28860 18155 ft 387 kts 122°
2026-04-21 20:57 26.03831 44.31542 18714 ft 391 kts 122°
2026-04-21 20:57 26.02647 44.34285 19272 ft 396 kts 122°
2026-04-21 20:57 26.01446 44.37066 19823 ft 400 kts 121°
2026-04-21 20:58 26.00235 44.39872 20358 ft 405 kts 121°
2026-04-21 20:58 25.99008 44.42710 20886 ft 409 kts 121°
2026-04-21 20:58 25.97770 44.45575 21401 ft 413 kts 121°
2026-04-21 20:58 25.96519 44.48469 21911 ft 416 kts 121°
2026-04-21 20:59 25.95275 44.51346 22397 ft 420 kts 121°
2026-04-21 20:59 25.94002 44.54288 22881 ft 423 kts 120°
2026-04-21 20:59 25.92720 44.57250 23341 ft 427 kts 120°
2026-04-21 20:59 25.91430 44.60232 23774 ft 431 kts 120°
2026-04-21 21:00 25.90125 44.63247 24197 ft 434 kts 120°
2026-04-21 21:00 25.88812 44.66280 24606 ft 438 kts 120°
2026-04-21 21:00 25.87485 44.69344 25003 ft 441 kts 120°
2026-04-21 21:00 25.86142 44.72422 25398 ft 444 kts 121°
2026-04-21 21:01 25.84721 44.75473 25755 ft 447 kts 122°
2026-04-21 21:01 25.83267 44.78551 26108 ft 450 kts 122°
2026-04-21 21:01 25.81807 44.81640 26445 ft 454 kts 122°
2026-04-21 21:01 25.80335 44.84755 26770 ft 457 kts 122°
2026-04-21 21:02 25.78855 44.87891 27086 ft 460 kts 122°
2026-04-21 21:02 25.77381 44.91014 27362 ft 464 kts 122°
2026-04-21 21:02 25.75881 44.94194 27676 ft 466 kts 122°
2026-04-21 21:02 25.74369 44.97399 27944 ft 470 kts 122°
2026-04-21 21:03 25.72851 45.00617 28227 ft 472 kts 122°
2026-04-21 21:03 25.71325 45.03851 28501 ft 475 kts 122°
2026-04-21 21:03 25.69789 45.07106 28754 ft 478 kts 122°
2026-04-21 21:03 25.68242 45.10385 29017 ft 480 kts 122°
2026-04-21 21:04 25.66688 45.13673 29257 ft 482 kts 122°
2026-04-21 21:04 25.65121 45.16976 29479 ft 485 kts 122°
2026-04-21 21:04 25.63548 45.20288 29704 ft 487 kts 122°
2026-04-21 21:04 25.61968 45.23618 29925 ft 489 kts 122°
2026-04-21 21:05 25.60378 45.26972 30118 ft 492 kts 122°
2026-04-21 21:05 25.58788 45.30324 30344 ft 493 kts 122°
2026-04-21 21:05 25.57209 45.33654 30520 ft 495 kts 122°
2026-04-21 21:05 25.55606 45.37034 30742 ft 497 kts 122°
2026-04-21 21:06 25.53992 45.40436 30923 ft 499 kts 122°
2026-04-21 21:06 25.52372 45.43850 31124 ft 501 kts 122°
2026-04-21 21:06 25.50746 45.47275 31325 ft 503 kts 122°
2026-04-21 21:06 25.49114 45.50711 31525 ft 505 kts 122°
2026-04-21 21:07 25.47481 45.54146 31757 ft 506 kts 122°
2026-04-21 21:07 25.45835 45.57606 31922 ft 509 kts 122°
2026-04-21 21:07 25.44183 45.61080 32114 ft 511 kts 122°
2026-04-21 21:07 25.42522 45.64570 32305 ft 513 kts 122°
2026-04-21 21:08 25.40880 45.68016 32475 ft 515 kts 122°
2026-04-21 21:08 25.39206 45.71530 32663 ft 517 kts 122°
2026-04-21 21:08 25.37526 45.75052 32839 ft 519 kts 123°
2026-04-21 21:08 25.35841 45.78599 33018 ft 522 kts 122°
2026-04-21 21:09 25.34245 45.82227 33195 ft 525 kts 120°
2026-04-21 21:09 25.32686 45.85883 33372 ft 527 kts 120°
2026-04-21 21:09 25.31139 45.89523 33507 ft 530 kts 120°
2026-04-21 21:09 25.29570 45.93219 33691 ft 532 kts 120°
2026-04-21 21:10 25.27998 45.96924 33923 ft 532 kts 120°
2026-04-21 21:10 25.26419 46.00647 34103 ft 534 kts 120°
2026-04-21 21:10 25.24838 46.04370 34241 ft 536 kts 120°
2026-04-21 21:10 25.23248 46.08115 34451 ft 537 kts 120°
2026-04-21 21:11 25.21664 46.11837 34824 ft 533 kts 119°
2026-04-21 21:11 25.20108 46.15495 35042 ft 534 kts 119°
2026-04-21 21:11 25.18529 46.19206 35227 ft 535 kts 119°
2026-04-21 21:11 25.16944 46.22931 35468 ft 534 kts 119°
2026-04-21 21:12 25.15365 46.26639 35711 ft 533 kts 118°
2026-04-21 21:12 25.13785 46.30347 35955 ft 533 kts 118°
2026-04-21 21:12 25.12203 46.34056 36194 ft 532 kts 118°
2026-04-21 21:12 25.10625 46.37754 36435 ft 532 kts 118°
2026-04-21 21:13 25.09072 46.41391 36664 ft 531 kts 118°
2026-04-21 21:13 25.07495 46.45079 36847 ft 533 kts 118°
2026-04-21 21:13 25.04322 46.52496 36912 ft 533 kts 118°
2026-04-21 21:14 25.01142 46.59916 36915 ft 536 kts 118°
2026-04-21 21:14 24.97956 46.67387 36912 ft 540 kts 117°
2026-04-21 21:15 24.95030 46.75019 36911 ft 539 kts 115°
2026-04-21 21:15 24.92175 46.82620 36913 ft 534 kts 115°
2026-04-21 21:16 24.89360 46.90116 36910 ft 533 kts 115°
2026-04-21 21:16 24.86519 46.97678 36907 ft 534 kts 115°
2026-04-21 21:17 24.83675 47.05243 36904 ft 534 kts 115°
2026-04-21 21:17 24.80836 47.12786 36905 ft 532 kts 115°
2026-04-21 21:18 24.78003 47.20305 36909 ft 531 kts 115°
2026-04-21 21:18 24.75178 47.27792 36911 ft 530 kts 115°
2026-04-21 21:19 24.72351 47.35271 36914 ft 529 kts 115°
2026-04-21 21:19 24.69541 47.42699 36907 ft 529 kts 115°
2026-04-21 21:20 24.66670 47.50272 36886 ft 543 kts 116°
2026-04-21 21:20 24.63743 47.57971 36891 ft 545 kts 115°
2026-04-21 21:21 24.60818 47.65659 36894 ft 545 kts 115°
2026-04-21 21:21 24.57909 47.73295 36893 ft 545 kts 115°
2026-04-21 21:22 24.55017 47.80998 36893 ft 546 kts 113°
2026-04-21 21:22 24.52403 47.88830 36892 ft 546 kts 112°
2026-04-21 21:23 24.49826 47.96682 36885 ft 546 kts 112°
2026-04-21 21:23 24.47253 48.04532 36881 ft 546 kts 112°
2026-04-21 21:24 24.44701 48.12324 36883 ft 546 kts 112°
2026-04-21 21:24 24.42132 48.20161 36882 ft 546 kts 112°
2026-04-21 21:25 24.39560 48.28000 36881 ft 546 kts 112°
2026-04-21 21:25 24.36980 48.35853 36874 ft 546 kts 111°
2026-04-21 21:26 24.34400 48.43697 36875 ft 545 kts 111°
2026-04-21 21:26 24.31821 48.51525 36871 ft 545 kts 111°
2026-04-21 21:27 24.29256 48.59296 36864 ft 545 kts 111°
2026-04-21 21:27 24.26671 48.67116 36863 ft 545 kts 111°
2026-04-21 21:28 24.24085 48.74926 36866 ft 545 kts 112°
2026-04-21 21:29 24.20200 48.86628 36868 ft 545 kts 112°
2026-04-21 21:29 24.17499 48.94339 36870 ft 544 kts 115°
2026-04-21 21:30 24.14619 49.01992 36872 ft 544 kts 114°
2026-04-21 21:30 24.11787 49.09680 36873 ft 544 kts 114°
2026-04-21 21:31 24.08968 49.17360 36872 ft 544 kts 114°
2026-04-21 21:31 24.06143 49.25055 36870 ft 544 kts 114°
2026-04-21 21:32 24.03322 49.32727 36872 ft 544 kts 114°
2026-04-21 21:32 24.00511 49.40362 36868 ft 544 kts 114°
2026-04-21 21:33 23.97679 49.48032 36874 ft 543 kts 114°
2026-04-21 21:33 23.94848 49.55694 36874 ft 543 kts 114°
2026-04-21 21:34 23.92005 49.63371 36874 ft 543 kts 114°
2026-04-21 21:34 23.89176 49.70996 36875 ft 543 kts 114°
2026-04-21 21:35 23.86326 49.78663 36875 ft 544 kts 114°
2026-04-21 21:35 23.83477 49.86313 36874 ft 543 kts 114°
2026-04-21 21:36 23.80639 49.93921 36874 ft 543 kts 114°
2026-04-21 21:36 23.77782 50.01565 36874 ft 543 kts 114°
2026-04-21 21:37 23.74919 50.09209 36871 ft 543 kts 113°
2026-04-21 21:37 23.72054 50.16849 36868 ft 543 kts 113°
2026-04-21 21:38 23.69206 50.24426 36866 ft 543 kts 114°
2026-04-21 21:38 23.66337 50.32048 36863 ft 542 kts 114°
2026-04-21 21:39 23.63467 50.39660 36860 ft 542 kts 114°
2026-04-21 21:39 23.60611 50.47220 36855 ft 542 kts 114°
2026-04-21 21:40 23.57733 50.54821 36852 ft 541 kts 113°
2026-04-21 21:40 23.54852 50.62424 36851 ft 541 kts 113°
2026-04-21 21:41 23.51987 50.69968 36849 ft 541 kts 113°
2026-04-21 21:41 23.49105 50.77545 36851 ft 540 kts 113°
2026-04-21 21:42 23.46224 50.85105 36851 ft 540 kts 113°
2026-04-21 21:42 23.43344 50.92652 36854 ft 540 kts 113°
2026-04-21 21:43 23.40467 51.00176 36856 ft 540 kts 113°
2026-04-21 21:43 23.37573 51.07728 36859 ft 540 kts 113°
2026-04-21 21:44 23.34678 51.15276 36861 ft 540 kts 113°
2026-04-21 21:44 23.31778 51.22823 36862 ft 539 kts 113°
2026-04-21 21:45 23.28893 51.30318 36864 ft 540 kts 113°
2026-04-21 21:45 23.26476 51.36586 36865 ft 539 kts 113°
2026-04-21 21:46 23.23093 51.45346 36864 ft 539 kts 113°
2026-04-21 21:46 23.20667 51.51617 36866 ft 539 kts 113°
2026-04-21 21:47 23.17757 51.59128 36867 ft 539 kts 113°
2026-04-21 21:47 23.14841 51.66641 36867 ft 539 kts 113°
2026-04-21 21:48 23.11923 51.74148 36869 ft 539 kts 113°
2026-04-21 21:48 23.09021 51.81599 36871 ft 539 kts 113°
2026-04-21 21:49 23.06101 51.89086 36873 ft 538 kts 113°
2026-04-21 21:49 23.03168 51.96595 36874 ft 538 kts 113°
2026-04-21 21:50 23.00240 52.04076 36874 ft 538 kts 113°
2026-04-21 21:50 22.97326 52.11510 36875 ft 539 kts 113°
2026-04-21 21:51 22.94387 52.18998 36872 ft 538 kts 113°
2026-04-21 21:51 22.91447 52.26473 36871 ft 538 kts 113°
2026-04-21 21:52 22.88521 52.33901 36871 ft 538 kts 113°
2026-04-21 21:52 22.85574 52.41372 36869 ft 538 kts 113°
2026-04-21 21:53 22.82639 52.48841 36867 ft 538 kts 110°
2026-04-21 21:53 22.81668 52.52735 36866 ft 534 kts 97°
2026-04-21 21:53 22.81089 52.56700 36877 ft 534 kts 97°
2026-04-21 21:54 22.80021 52.64650 36874 ft 533 kts 95°
2026-04-21 21:54 22.79061 52.72614 36875 ft 532 kts 94°
2026-04-21 21:55 22.78111 52.80569 36874 ft 532 kts 94°
2026-04-21 21:55 22.77159 52.88522 36874 ft 532 kts 94°
2026-04-21 21:56 22.76208 52.96442 36875 ft 532 kts 94°
2026-04-21 21:56 22.75253 53.04373 36882 ft 528 kts 95°
2026-04-21 21:57 22.74290 53.12310 36874 ft 532 kts 94°
2026-04-21 21:57 22.73324 53.20256 36874 ft 531 kts 94°
2026-04-21 21:58 22.72355 53.28188 36875 ft 531 kts 94°
2026-04-21 21:58 22.71382 53.36115 36875 ft 530 kts 94°
2026-04-21 21:59 22.70407 53.44024 36875 ft 530 kts 94°
2026-04-21 21:59 22.69435 53.51875 36874 ft 529 kts 94°
2026-04-21 22:00 22.68456 53.59749 36874 ft 528 kts 94°
2026-04-21 22:00 22.67474 53.67623 36874 ft 527 kts 94°
2026-04-21 22:01 22.66486 53.75497 36874 ft 527 kts 94°
2026-04-21 22:01 22.65496 53.83364 36875 ft 527 kts 94°
2026-04-21 22:02 22.64504 53.91219 36873 ft 527 kts 94°
2026-04-21 22:02 22.63506 53.99077 36874 ft 527 kts 94°
2026-04-21 22:03 22.62507 54.06915 36875 ft 525 kts 94°
2026-04-21 22:03 22.61506 54.14746 36875 ft 525 kts 94°
2026-04-21 22:04 22.60507 54.22526 36873 ft 525 kts 94°
2026-04-21 22:04 22.59495 54.30367 36875 ft 525 kts 94°
2026-04-21 22:05 22.58482 54.38199 36875 ft 525 kts 94°
2026-04-21 22:05 22.57465 54.46023 36876 ft 525 kts 94°
2026-04-21 22:06 22.56445 54.53842 36875 ft 525 kts 94°
2026-04-21 22:06 22.55427 54.61612 36874 ft 525 kts 94°
2026-04-21 22:07 22.54398 54.69433 36872 ft 524 kts 94°
2026-04-21 22:07 22.53367 54.77249 36876 ft 525 kts 94°
2026-04-21 22:08 22.52332 54.85062 36874 ft 524 kts 94°
2026-04-21 22:08 22.51292 54.92881 36875 ft 524 kts 94°
2026-04-21 22:09 22.50256 55.00637 36875 ft 524 kts 94°
2026-04-21 22:09 22.49211 55.08422 36873 ft 522 kts 94°
2026-04-21 22:10 22.48168 55.16191 36875 ft 522 kts 94°
2026-04-21 22:10 22.47119 55.23959 36874 ft 522 kts 94°
2026-04-21 22:11 22.46086 55.31684 36872 ft 520 kts 91°
2026-04-21 22:11 22.46124 55.35553 36871 ft 508 kts 76°
2026-04-21 22:11 22.47010 55.39192 36874 ft 492 kts 60°
2026-04-21 22:11 22.48621 55.42393 36883 ft 479 kts 49°
2026-04-21 22:12 22.50414 55.45434 36877 ft 480 kts 49°
2026-04-21 22:12 22.54023 55.51487 36870 ft 481 kts 48°
2026-04-21 22:13 22.57661 55.57557 36872 ft 480 kts 48°
2026-04-21 22:13 22.61300 55.63605 36876 ft 480 kts 48°
2026-04-21 22:14 22.64948 55.69660 36875 ft 479 kts 48°
2026-04-21 22:14 22.68604 55.75720 36874 ft 480 kts 48°
2026-04-21 22:15 22.72238 55.81734 36870 ft 479 kts 48°
2026-04-21 22:15 22.75897 55.87787 36873 ft 479 kts 48°
2026-04-21 22:16 22.79554 55.93831 36877 ft 479 kts 48°
2026-04-21 22:16 22.83192 55.99861 36877 ft 479 kts 48°
2026-04-21 22:17 22.86834 56.05900 36872 ft 476 kts 48°
2026-04-21 22:17 22.90470 56.11927 36874 ft 477 kts 48°
2026-04-21 22:18 22.94084 56.17916 36872 ft 477 kts 48°
2026-04-21 22:18 22.97714 56.23937 36872 ft 476 kts 48°
2026-04-21 22:19 23.01354 56.29975 36870 ft 478 kts 48°
2026-04-21 22:19 23.04866 56.36078 36524 ft 478 kts 50°
2026-04-21 22:19 23.06594 56.39162 35785 ft 477 kts 51°
2026-04-21 22:20 23.08316 56.42232 35054 ft 475 kts 52°
2026-04-21 22:20 23.10031 56.45287 34308 ft 473 kts 53°
2026-04-21 22:20 23.11729 56.48316 33829 ft 464 kts 53°
2026-04-21 22:20 23.13396 56.51296 33348 ft 457 kts 54°
2026-04-21 22:21 23.15037 56.54226 32869 ft 451 kts 55°
2026-04-21 22:21 23.16657 56.57121 32406 ft 445 kts 55°
2026-04-21 22:21 23.18256 56.59983 31947 ft 439 kts 56°
2026-04-21 22:21 23.19817 56.62780 31497 ft 434 kts 56°
2026-04-21 22:22 23.21371 56.65564 31051 ft 429 kts 57°
2026-04-21 22:22 23.22914 56.68329 30606 ft 424 kts 57°
2026-04-21 22:22 23.24439 56.71063 30168 ft 419 kts 58°
2026-04-21 22:22 23.25944 56.73763 29731 ft 415 kts 58°
2026-04-21 22:23 23.27443 56.76455 29313 ft 413 kts 58°
2026-04-21 22:23 23.28912 56.79092 28880 ft 411 kts 58°
2026-04-21 22:23 23.30389 56.81745 28453 ft 408 kts 58°
2026-04-21 22:23 23.31859 56.84382 28028 ft 406 kts 58°
2026-04-21 22:24 23.33195 56.87083 27609 ft 404 kts 64°
2026-04-21 22:24 23.34236 56.89921 27186 ft 402 kts 71°
2026-04-21 22:24 23.34953 56.92817 26769 ft 400 kts 77°
2026-04-21 22:24 23.35530 56.95768 26361 ft 397 kts 77°
2026-04-21 22:25 23.36097 56.98697 25947 ft 395 kts 77°
2026-04-21 22:25 23.36655 57.01613 25540 ft 392 kts 77°
2026-04-21 22:25 23.37205 57.04512 25137 ft 390 kts 77°
2026-04-21 22:25 23.37774 57.07401 24895 ft 394 kts 76°
2026-04-21 22:26 23.38438 57.10365 24613 ft 408 kts 75°
2026-04-21 22:26 23.39116 57.13364 24193 ft 405 kts 75°
2026-04-21 22:26 23.39778 57.16300 23821 ft 402 kts 75°
2026-04-21 22:26 23.40443 57.19256 23452 ft 400 kts 75°
2026-04-21 22:27 23.41102 57.22191 23069 ft 398 kts 75°
2026-04-21 22:27 23.41755 57.25107 22698 ft 395 kts 75°
2026-04-21 22:27 23.42407 57.28013 22328 ft 393 kts 75°
2026-04-21 22:27 23.43052 57.30899 21961 ft 391 kts 75°
2026-04-21 22:28 23.43692 57.33767 21596 ft 388 kts 75°
2026-04-21 22:28 23.44328 57.36619 21234 ft 386 kts 76°
2026-04-21 22:28 23.44959 57.39455 20879 ft 384 kts 76°
2026-04-21 22:28 23.45577 57.42233 20518 ft 381 kts 76°
2026-04-21 22:29 23.46199 57.45037 20162 ft 378 kts 76°
2026-04-21 22:29 23.46816 57.47823 19809 ft 376 kts 76°
2026-04-21 22:29 23.47426 57.50581 19462 ft 373 kts 76°
2026-04-21 22:29 23.48030 57.53314 19102 ft 370 kts 76°
2026-04-21 22:30 23.48545 57.56045 18765 ft 367 kts 82°
2026-04-21 22:30 23.48726 57.58806 18426 ft 365 kts 89°
2026-04-21 22:30 23.48729 57.61527 18090 ft 362 kts 90°
2026-04-21 22:30 23.48721 57.64256 17753 ft 360 kts 90°
2026-04-21 22:31 23.48707 57.66980 17417 ft 359 kts 90°
2026-04-21 22:31 23.48688 57.69692 17082 ft 357 kts 90°
2026-04-21 22:31 23.48667 57.72395 16749 ft 356 kts 90°
2026-04-21 22:31 23.48643 57.75088 16421 ft 354 kts 90°
2026-04-21 22:32 23.48617 57.77771 16084 ft 353 kts 90°
2026-04-21 22:32 23.48591 57.80436 15755 ft 351 kts 90°
2026-04-21 22:32 23.48563 57.83056 15430 ft 349 kts 90°
2026-04-21 22:32 23.48535 57.85704 15107 ft 348 kts 90°
2026-04-21 22:33 23.48506 57.88331 14783 ft 346 kts 90°
2026-04-21 22:33 23.48458 57.90945 14451 ft 344 kts 90°
2026-04-21 22:33 23.48414 57.93544 14127 ft 342 kts 90°
2026-04-21 22:33 23.48370 57.96135 13821 ft 340 kts 90°
2026-04-21 22:34 23.48326 57.98677 13503 ft 338 kts 90°
2026-04-21 22:34 23.48283 58.01239 13207 ft 339 kts 89°
2026-04-21 22:34 23.48239 58.03801 12856 ft 336 kts 89°
2026-04-21 22:34 23.48194 58.06335 12559 ft 333 kts 89°
2026-04-21 22:35 23.48149 58.08851 12247 ft 331 kts 89°
2026-04-21 22:35 23.48105 58.11353 11938 ft 328 kts 89°
2026-04-21 22:35 23.48075 58.12996 11738 ft 327 kts 89°
2026-04-21 22:35 23.48016 58.16270 11495 ft 325 kts 89°
2026-04-21 22:36 23.47941 58.20366 11141 ft 316 kts 89°
2026-04-21 22:36 23.47896 58.22686 11018 ft 305 kts 89°
2026-04-21 22:36 23.47903 58.24995 10623 ft 303 kts 85°
2026-04-21 22:37 23.48058 58.27277 10271 ft 300 kts 83°
2026-04-21 22:37 23.48242 58.29529 9951 ft 297 kts 82°
2026-04-21 22:37 23.48431 58.31766 9634 ft 294 kts 82°
2026-04-21 22:37 23.48618 58.33951 9364 ft 294 kts 82°
2026-04-21 22:38 23.48809 58.36166 9090 ft 294 kts 82°
2026-04-21 22:38 23.49001 58.38382 8816 ft 294 kts 83°
2026-04-21 22:38 23.49194 58.40604 8542 ft 293 kts 83°
2026-04-21 22:38 23.49386 58.42818 8268 ft 293 kts 83°
2026-04-21 22:39 23.49577 58.45023 7995 ft 292 kts 83°
2026-04-21 22:39 23.49767 58.47230 7722 ft 291 kts 84°
2026-04-21 22:39 23.49941 58.49427 7476 ft 290 kts 84°
2026-04-21 22:39 23.50124 58.51618 7208 ft 289 kts 84°
2026-04-21 22:40 23.50302 58.53767 6942 ft 287 kts 85°
2026-04-21 22:40 23.50479 58.55924 6674 ft 286 kts 85°
2026-04-21 22:40 23.50888 58.58026 6397 ft 284 kts 67°
2026-04-21 22:40 23.52010 58.59770 6138 ft 282 kts 43°
2026-04-21 22:41 23.53676 58.60848 6027 ft 277 kts 18°
2026-04-21 22:41 23.55522 58.61071 5966 ft 262 kts 353°
2026-04-21 22:41 23.57187 58.60445 5858 ft 248 kts 327°
2026-04-21 22:41 23.58403 58.59131 5453 ft 248 kts 300°
2026-04-21 22:42 23.59211 58.57509 5205 ft 244 kts 300°
2026-04-21 22:42 23.60148 58.55945 4900 ft 244 kts 304°
2026-04-21 22:42 23.61160 58.54464 4547 ft 245 kts 306°
2026-04-21 22:42 23.61956 58.52855 4343 ft 238 kts 288°
2026-04-21 22:43 23.62291 58.51106 4074 ft 235 kts 276°
2026-04-21 22:43 23.62352 58.49328 3649 ft 241 kts 269°
2026-04-21 22:43 23.62283 58.47504 3318 ft 239 kts 266°
2026-04-21 22:43 23.62170 58.45725 2980 ft 232 kts 265°
2026-04-21 22:44 23.62042 58.43984 2657 ft 226 kts 264°
2026-04-21 22:44 23.61911 58.42297 2349 ft 221 kts 264°
2026-04-21 22:44 23.61781 58.40647 2054 ft 215 kts 264°
2026-04-21 22:44 23.61656 58.39072 1794 ft 200 kts 264°
2026-04-21 22:45 23.61542 58.37636 1522 ft 178 kts 264°
2026-04-21 22:45 23.61442 58.36380 1293 ft 157 kts 263°
2026-04-21 22:45 23.61348 58.35215 1081 ft 152 kts 263°
2026-04-21 22:45 23.61251 58.34085 891 ft 151 kts 265°
2026-04-21 22:46 23.61161 58.32954 697 ft 149 kts 266°
2026-04-21 22:46 23.61068 58.31834 502 ft 148 kts 266°
2026-04-21 22:46 23.60977 58.30713 356 ft 149 kts 266°
2026-04-21 22:46 23.60892 58.29590 139 ft 147 kts 266°
2026-04-21 22:47 23.60815 58.28578 64 ft 111 kts 265°
2026-04-21 22:47 23.60762 58.27918 64 ft 71 kts 265°
2026-04-21 22:47 23.60727 58.27446 64 ft 54 kts 265°
2026-04-21 22:47 23.60689 58.27134 64 ft 29 kts 246°
2026-04-21 22:48 23.60600 58.26968 64 ft 21 kts 232°
2026-04-21 22:48 23.60515 58.26847 64 ft 20 kts 232°
2026-04-21 22:48 23.60430 58.26786 64 ft 11 kts 170°
2026-04-21 22:48 23.60407 58.26859 64 ft 14 kts 85°
2026-04-21 22:49 23.60420 58.27012 64 ft 24 kts 84°
2026-04-21 22:49 23.60435 58.27198 64 ft 25 kts 85°
2026-04-21 22:49 23.60450 58.27394 64 ft 26 kts 85°
2026-04-21 22:49 23.60460 58.27542 64 ft 14 kts 98°
2026-04-21 22:50 23.60396 58.27626 64 ft 15 kts 139°
2026-04-21 22:50 23.60318 58.27699 64 ft 14 kts 139°
2026-04-21 22:50 23.60244 58.27770 64 ft 14 kts 139°
2026-04-21 22:50 23.60199 58.27856 64 ft 13 kts 88°
2026-04-21 22:51 23.60206 58.27965 64 ft 17 kts 85°
2026-04-21 22:51 23.60215 58.28107 64 ft 19 kts 86°
2026-04-21 22:51 23.60225 58.28251 64 ft 19 kts 86°
2026-04-21 22:51 23.60226 58.28354 64 ft 6 kts 139°
2026-04-21 22:52 23.60190 58.28372 64 ft 6 kts 173°
2026-04-21 22:52 23.60153 58.28377 64 ft 5 kts 172°
2026-04-21 22:52 23.60123 58.28382 64 ft 0 kts 172°